INTELSAT 33E (IS-33E)

Last updated on Fri Oct 11 2024 00:02:41 GMT+0000 (Coordinated Universal Time)

1 41748U 16053B 24284.55829178 .00000053 00000+0 00000+0 0 9990 2 41748 0.0168 239.0946 0002346 320.3012 81.2542 1.00271903 30086
UTC large
Height (km)
Speed (km/s)
/
Latitude / Longitude
Inclination (degrees)
Orbital Period (minutes)
Azimuth
Elevation
Range (km)
Doppler Factor

Next 0 passes for location: London (51.5072 / 0.1276)

Sorry there are no passes over London.